Regional Weather Roundup
Issued by NWS

Current Version | Previous Version | Text Only | Print | Product List | Glossary On
Versions: 1 2 3 4 5 6 7 8 9 10 11 12 13 14 15 16 17 18 19 20 21 22 23 24 25 26 27 28 29 30 31 32 33 34 35 36 37 38 39 40 41 42 43 44 45 46 47 48 49 50
000
ASUS44 KFWD 300203
RWRTX
NORTH TEXAS HOURLY WEATHER ROUNDUP
NATIONAL WEATHER SERVICE FORT WORTH TX
900 PM CDT FRI JUL 29 2016

NOTE: "FAIR" INDICATES FEW OR NO CLOUDS BELOW 12,000 FEET WITH NO
SIGNIFICANT WEATHER AND/OR OBSTRUCTIONS TO VISIBILITY.

TXZ118-119-300300-
DALLAS/FORT WORTH METROPLEX

CITY           SKY/WX    TMP DP  RH WIND       PRES   REMARKS
DFW AIRPORT    PTCLDY    88  68  51 S6        29.90R HX  91
DALLAS LOVE    PTCLDY    92  68  45 S7        29.90R HX  96
FTW MEACHAM    CLEAR     89  69  51 S9        29.90R HX  93
DAL-EXECUTIVE  CLEAR     88  68  51 S5        29.91R HX  91
FTW-ALLIANCE   PTCLDY    85  68  56 S5        29.90R
FTW-NAS-JRB    PTCLDY    90  67  46 S12       29.90R HX  93
FTW-SPINKS     CLEAR     86  68  55 S5        29.93R
ARLINGTON      CLEAR     89  69  51 S7        29.91R HX  93
GRAND PRAIRIE  CLEAR     89  68  49 S6        29.92R HX  92
ADDISON        CLEAR     90  68  48 S6        29.92S HX  93
MESQUITE       CLEAR     84  73  68 SE7       29.91S HX  90
LANCASTER      CLEAR     87  72  62 CALM      29.92R HX  93
$$

TXZ091>094-102>105-117-120-121-131>134-300300-
NORTH CENTRAL TEXAS

CITY           SKY/WX    TMP DP  RH WIND       PRES   REMARKS
SHRMAN/DENISON PTCLDY    88  72  58 CALM      29.93R HX  94
BOWIE          CLEAR     84  72  67 CALM      29.92S
BRIDGEPORT     CLEAR     82  74  78 CALM      29.93S
DECATUR        CLEAR     84  70  61 CALM      29.93R
DENTON         CLEAR     83  75  77 S5        29.90R HX  90
MCKINNEY       CLEAR     89  69  51 SW6       29.91R HX  93
GREENVILLE     CLEAR     84  70  61 SE6       29.92R
ROCKWALL       CLEAR     86  71  59 SE9       29.91R HX  91
TERRELL        CLEAR     85  73  67 SE7       29.92R HX  91
WAXAHACHIE     CLEAR     83  72  67 S5        29.93R
CLEBURNE       CLEAR     84  72  65 SE6       29.94R
GRANBURY       CLEAR     89  69  51 S7        29.92S HX  93
$$

TXZ083>090-098>101-113>116-127>130-139>142-154-155-300300-
WESTERN NORTH TEXAS

CITY           SKY/WX    TMP DP  RH WIND       PRES   REMARKS
WICHITA FALLS  CLEAR     86  70  58 S9        29.90R HX  90
WF-KICKAPOO    CLEAR     89  68  50 S5        29.91R HX  93
VERNON         CLEAR     91  56  31 CALM      29.92S
ABILENE        CLEAR     86  69  56 SE7       29.96R HX  90
ABILENE-DYESS  CLEAR     88  68  50 SE10      29.94R HX  91
CISCO          CLEAR     86  66  51 SE8       29.97R HAZE
BRECKENRIDGE   CLEAR     86  69  56 SE6       29.93R
GRAHAM         CLEAR     84  71  64 SE3       29.91S
MINERAL WELLS  CLEAR     84  73  69 E5        29.91R HX  90
STEPHENVILLE   CLEAR     85  64  49 CALM      29.97S
COMANCHE       CLEAR     85  66  53 SE6       29.95S
BROWNWOOD      CLEAR     86  64  48 SE7       29.95R
COLEMAN        CLEAR     84  65  51 S3        29.96S
$$

TXZ143>147-156>162-174-175-300300-
CENTRAL TEXAS

CITY           SKY/WX    TMP DP  RH WIND       PRES   REMARKS
WACO           CLEAR     86  70  58 E5        29.91R HX  90
WACO-TSTC      CLEAR     82  73  74 CALM      29.91S
WACO-MCGREGOR  CLEAR     87  68  52 S7        29.92R HX  90
HILLSBORO      CLEAR     83  69  63 SE3       29.93R
CORSICANA      CLEAR     85  73  67 SE8       29.93R HX  91
MEXIA          CLEAR     83  73  71 SE6       29.92S HX  90
HEARNE         CLEAR     87  72  60 CALM      29.93R HX  93
CAMERON        CLEAR     88  69  53 CALM      29.92R HX  92
TEMPLE         CLEAR     88  68  51 S7        29.93R HX  91
KILLEEN        PTCLDY    84  65  52 SE8       29.93S
KILLEEN-SKYLRK CLEAR     88  66  48 S7        29.93S HX  90
FORT HOOD      CLEAR     87  64  45 S8        29.91S
GATESVILLE     CLEAR     88  66  48 CALM      29.95R HX  90
HAMILTON       CLEAR     84  63  48 S3        29.97R
LAMPASAS       CLEAR     88  66  48 S6        29.94S HX  91
$$

TXZ095>097-106>112-122>126-135>138-148>153-164>167-300300-
EAST TEXAS

CITY           SKY/WX    TMP DP  RH WIND       PRES   REMARKS
PARIS          CLEAR     84  68  58 S8        29.93R
SULPHUR SPRNGS CLEAR     86  72  62 S7        29.95R HX  91
MOUNT PLEASANT CLEAR     82  71  69 CALM      29.95R
GILMER         CLEAR     79  74  84 CALM      29.94R
MINEOLA        CLEAR     82  75  78 CALM      29.94R
TYLER          CLEAR     84  72  67 S5        29.94R
LONGVIEW       CLEAR     83  74  74 S7        29.93R
MARSHALL       CLEAR     77  72  85 CALM      29.96R
ATHENS         CLEAR     81  73  78 CALM      29.93R
PALESTINE      CLEAR     83  72  70 SE5       29.95R
JACKSONVILLE   PTCLDY    80  71  74 S3        29.97R
HENDERSON      CLOUDY    80  72  75 S5        29.95S
CENTER         CLEAR     82  76  81 CALM      29.96S
NACOGDOCHES    CLEAR    N/A N/A N/A CALM      29.93S
LUFKIN         CLEAR     79  72  79 CALM      29.95S
$$

SUPPLEMENTAL OBSERVATIONS (CENTRAL)

CITY           SKY/WX    TMP DP  RH WIND       PRES   REMARKS
$$

SUPPLEMENTAL OBSERVATIONS (WEST)

CITY           SKY/WX    TMP DP  RH WIND       PRES   REMARKS
$$

SUPPLEMENTAL OBSERVATIONS (EAST)

CITY           SKY/WX    TMP DP  RH WIND       PRES   REMARKS
$$

SUPPLEMENTAL OBSERVATIONS ARE A COLLECTION OF AUTOMATED INSTRUMENTS
THAT ARE MAINTAINED BY A VARIETY OF FEDERAL AND STATE AGENCIES.
CERTAIN ELEMENTS...SUCH AS HUMIDITY VALUES AND SUSTAINED WIND
SPEEDS...MAY BE APPROXIMATED.





USA.gov is the U.S. government's official web portal to all federal, state and local government web resources and services.